Weather History for KMCD - August, 2013

Change the Weather History Date:

Saturday, August 31, 2013

  Actual Average Record
Temperature  
Mean Temperature 67 °F -  
Max Temperature 72 °F 70 °F 84 °F (2010)
Min Temperature 62 °F 56 °F 33 °F (2006)
Cooling Degree Days 2    
Growing Degree Days 17 (Base 50)    
Moisture  
Dew Point 61 °F    
Average Humidity 84    
Maximum Humidity 96    
Minimum Humidity 69    
Precipitation  
Precipitation 0.00 in - - ()
Sea Level Pressure  
Sea Level Pressure 29.87 in    
Wind  
Wind Speed 6 mph (East)    
Max Wind Speed 10 mph    
Max Gust Speed -    
Visibility 10 miles    
Events      
Averages and records for this station are not official NWS values.
T = Trace of Precipitation, MM = Missing Value Source: NWS Daily Summary

Daily Weather History Graph

Daily Weather History Graph

Search for Another Location

Airport or City:

Trip Planner

Search our weather history database for the weather conditions in past years. The results will help you decide how hot, cold, wet, or windy it might be!

Date:

Astronomy

Aug. 31, 2013 Rise Set
Actual Time 6:58 AM EDT 8:18 PM EDT
Civil Twilight 6:27 AM EDT 8:48 PM EDT
Nautical Twilight 5:50 AM EDT 9:26 PM EDT
Astronomical Twilight 5:10 AM EDT 10:05 PM EDT
Moon 2:17 AM EDT (8/31) 5:24 PM EDT (8/31)
Length of Visible Light 14h 21m
Length of Day
13h 19m
Waning Crescent, 21% of the Moon is Illuminated
Aug 31
Waning Crescent
Sep 5
New
Sep 12
First Quarter
Sep 19
Full
Sep 26
Last Quarter

Hourly Weather History & Observations

Time (EDT) Temp. Dew Point Humidity Pressure Visibility Wind Dir Wind Speed Gust Speed Precip Events Conditions
12:15 AM 66.4 °F 63.0 °F 89% 29.86 in 10.0 mi NNE 8.1 mph - N/A   Scattered Clouds
12:35 AM 65.8 °F 63.0 °F 90% 29.86 in 10.0 mi NNE 9.2 mph - N/A   Clear
12:56 AM 65.5 °F 62.8 °F 91% 29.87 in 10.0 mi NNE 8.1 mph - N/A   Clear
1:15 AM 65.1 °F 62.8 °F 92% 29.87 in 10.0 mi NNE 9.2 mph - N/A   Clear
1:35 AM 64.8 °F 62.6 °F 93% 29.86 in 10.0 mi NNE 10.4 mph - N/A   Clear
1:56 AM 64.4 °F 62.6 °F 94% 29.86 in 10.0 mi NNE 8.1 mph - N/A   Scattered Clouds
2:15 AM 64.2 °F 62.6 °F 94% 29.86 in 10.0 mi NNE 10.4 mph - N/A   Scattered Clouds
2:35 AM 64.2 °F 61.9 °F 92% 29.86 in 10.0 mi NNE 9.2 mph - N/A   Scattered Clouds
2:56 AM 64.0 °F 61.7 °F 92% 29.86 in 10.0 mi NE 10.4 mph - N/A   Overcast
3:15 AM 63.7 °F 61.7 °F 93% 29.87 in 10.0 mi NNE 8.1 mph - N/A   Mostly Cloudy
3:35 AM 63.5 °F 61.7 °F 94% 29.87 in 10.0 mi NE 6.9 mph - N/A   Overcast
3:56 AM 62.8 °F 61.3 °F 95% 29.88 in 10.0 mi NE 6.9 mph - N/A   Mostly Cloudy
4:15 AM 62.6 °F 61.3 °F 96% 29.87 in 10.0 mi NE 8.1 mph - N/A   Mostly Cloudy
4:35 AM 63.7 °F 61.7 °F 93% 29.87 in 10.0 mi ENE 6.9 mph - N/A   Overcast
4:56 AM 63.9 °F 61.0 °F 90% 29.88 in 10.0 mi ENE 5.8 mph - N/A   Overcast
5:15 AM 63.3 °F 60.8 °F 91% 29.88 in 10.0 mi NE 6.9 mph - N/A   Scattered Clouds
5:35 AM 62.4 °F 60.6 °F 94% 29.88 in 10.0 mi NE 8.1 mph - N/A   Scattered Clouds
5:56 AM 62.6 °F 60.8 °F 94% 29.88 in 10.0 mi NE 8.1 mph - N/A   Overcast
6:15 AM 62.6 °F 60.6 °F 93% 29.88 in 10.0 mi NE 8.1 mph - N/A   Overcast
6:35 AM 62.8 °F 60.8 °F 93% 29.89 in 10.0 mi NE 6.9 mph - N/A   Overcast
6:56 AM 62.6 °F 60.6 °F 93% 29.89 in 10.0 mi ENE 5.8 mph - N/A   Overcast
7:15 AM 62.2 °F 60.4 °F 94% 29.90 in 10.0 mi ENE 5.8 mph - N/A   Mostly Cloudy
7:35 AM 62.6 °F 60.4 °F 93% 29.90 in 10.0 mi NE 5.8 mph - N/A   Clear
7:56 AM 63.3 °F 60.6 °F 91% 29.89 in 10.0 mi NE 5.8 mph - N/A   Clear
8:15 AM 64.4 °F 60.8 °F 88% 29.89 in 10.0 mi NE 5.8 mph - N/A   Clear
8:35 AM 64.8 °F 61.0 °F 88% 29.89 in 10.0 mi NE 8.1 mph - N/A   Clear
8:55 AM 64.4 °F 59.4 °F 84% 29.89 in 10.0 mi Calm Calm - N/A   Clear
9:15 AM 65.3 °F 59.7 °F 82% 29.89 in 10.0 mi East 3.5 mph - N/A   Clear
9:36 AM 66.2 °F 59.7 °F 80% 29.88 in 10.0 mi Calm Calm - N/A   Clear
9:55 AM 66.4 °F 59.9 °F 80% 29.89 in 10.0 mi Calm Calm - N/A   Clear
10:15 AM 66.4 °F 59.4 °F 78% 29.88 in 10.0 mi SE 3.5 mph - N/A   Clear
10:36 AM 66.7 °F 60.4 °F 80% 29.89 in 10.0 mi East 4.6 mph - N/A   Clear
10:55 AM 66.9 °F 60.1 °F 79% 29.89 in 10.0 mi East 4.6 mph - N/A   Clear
11:15 AM 67.5 °F 60.1 °F 77% 29.89 in 10.0 mi East 4.6 mph - N/A   Clear
11:35 AM 67.6 °F 60.3 °F 77% 29.89 in 10.0 mi ENE 4.6 mph - N/A   Clear
11:55 AM 67.5 °F 60.1 °F 77% 29.89 in 10.0 mi Calm Calm - N/A   Clear
12:15 PM 67.5 °F 61.0 °F 80% 29.90 in 10.0 mi NE 4.6 mph - N/A   Scattered Clouds
12:35 PM 67.6 °F 61.0 °F 79% 29.89 in 10.0 mi Calm Calm - N/A   Scattered Clouds
12:55 PM 67.8 °F 61.2 °F 79% 29.88 in 10.0 mi SSE 4.6 mph - N/A   Mostly Cloudy
1:15 PM 69.1 °F 61.3 °F 76% 29.88 in 10.0 mi Calm Calm - N/A   Mostly Cloudy
1:35 PM 69.6 °F 61.9 °F 76% 29.88 in 10.0 mi Calm Calm - N/A   Mostly Cloudy
1:55 PM 69.6 °F 61.0 °F 74% 29.87 in 10.0 mi SSW 5.8 mph - N/A   Mostly Cloudy
2:15 PM 70.0 °F 60.8 °F 73% 29.87 in 10.0 mi WSW 3.5 mph - N/A   Scattered Clouds
2:35 PM 70.2 °F 61.0 °F 73% 29.88 in 10.0 mi WSW 3.5 mph - N/A   Scattered Clouds
2:55 PM 70.5 °F 61.2 °F 72% 29.88 in 10.0 mi SW 6.9 mph - N/A   Clear
3:15 PM 70.5 °F 61.0 °F 72% 29.88 in 10.0 mi West 4.6 mph - N/A   Clear
3:35 PM 70.9 °F 60.6 °F 70% 29.87 in 10.0 mi Calm Calm - N/A   Clear
3:55 PM 72.0 °F 61.7 °F 70% 29.87 in 10.0 mi SW 3.5 mph - N/A   Clear
4:15 PM 71.8 °F 61.2 °F 69% 29.86 in 10.0 mi South 4.6 mph - N/A   Clear
4:35 PM 70.5 °F 62.1 °F 74% 29.86 in 10.0 mi SW 8.1 mph - N/A   Clear
4:55 PM 70.5 °F 62.4 °F 75% 29.86 in 10.0 mi SW 6.9 mph - N/A   Clear
5:16 PM 70.9 °F 62.8 °F 75% 29.87 in 10.0 mi WSW 3.5 mph - N/A   Clear
5:35 PM 71.4 °F 61.9 °F 72% 29.86 in 10.0 mi WSW 3.5 mph - N/A   Clear
5:55 PM 71.8 °F 62.1 °F 71% 29.86 in 10.0 mi WSW 4.6 mph - N/A   Clear
6:16 PM 71.8 °F 62.4 °F 72% 29.86 in 10.0 mi SW 3.5 mph - N/A   Clear
6:35 PM 71.6 °F 61.0 °F 69% 29.85 in 10.0 mi Calm Calm - N/A   Clear
6:55 PM 71.4 °F 61.7 °F 71% 29.85 in 10.0 mi Calm Calm - N/A   Clear
7:16 PM 70.7 °F 61.9 °F 74% 29.84 in 10.0 mi Calm Calm - N/A   Clear
7:35 PM 71.1 °F 62.6 °F 75% 29.84 in 10.0 mi Calm Calm - N/A   Clear
7:55 PM 68.4 °F 63.0 °F 83% 29.83 in 10.0 mi Calm Calm - N/A   Clear
8:16 PM 66.7 °F 62.8 °F 87% 29.83 in 10.0 mi SE 5.8 mph - N/A   Clear
8:35 PM 65.7 °F 62.2 °F 89% 29.83 in 10.0 mi SE 6.9 mph - N/A   Clear
8:55 PM 64.6 °F 61.9 °F 91% 29.83 in 10.0 mi ESE 6.9 mph - N/A   Clear
9:16 PM 65.8 °F 61.7 °F 86% 29.84 in 10.0 mi SE 9.2 mph - N/A   Clear
9:35 PM 65.3 °F 61.2 °F 86% 29.83 in 10.0 mi SE 9.2 mph - N/A   Clear
9:55 PM 65.3 °F 61.2 °F 86% 29.83 in 10.0 mi SE 9.2 mph - N/A   Clear
10:15 PM 65.3 °F 60.8 °F 85% 29.85 in 10.0 mi SSE 6.9 mph - N/A   Clear
10:35 PM 64.6 °F 61.7 °F 90% 29.86 in 10.0 mi SSE 8.1 mph - N/A   Clear
10:56 PM 64.8 °F 61.7 °F 90% 29.86 in 10.0 mi SSE 8.1 mph - N/A   Clear
11:15 PM 64.9 °F 62.6 °F 92% 29.86 in 10.0 mi SSE 6.9 mph - N/A   Clear
11:35 PM 64.9 °F 63.1 °F 94% 29.86 in 10.0 mi South 8.1 mph - N/A   Clear
11:56 PM 64.9 °F 62.6 °F 92% 29.86 in 10.0 mi South 8.1 mph - N/A   Clear